Year,Month,Day,Hour,Minute,Value (Times are PST for temperature in C)
2009,04,24,00,00,6.90
2009,04,24,00,01,6.90
2009,04,24,00,02,6.90
2009,04,24,00,03,6.90
2009,04,24,00,04,7.00
2009,04,24,00,05,7.00
2009,04,24,00,06,7.00
2009,04,24,00,07,7.00
2009,04,24,00,08,7.00
2009,04,24,00,09,7.00
2009,04,24,00,10,7.00
2009,04,24,00,11,7.00
2009,04,24,00,12,7.00
2009,04,24,00,13,7.00
2009,04,24,00,14,7.00
2009,04,24,00,15,7.00
2009,04,24,00,16,7.00
2009,04,24,00,17,7.00
2009,04,24,00,18,7.00
2009,04,24,00,19,7.00
2009,04,24,00,20,7.00
2009,04,24,00,21,7.00
2009,04,24,00,22,7.00
2009,04,24,00,23,7.00
2009,04,24,00,24,7.00
2009,04,24,00,25,7.00
2009,04,24,00,26,7.00
2009,04,24,00,27,7.00
2009,04,24,00,28,6.90
2009,04,24,00,29,6.90
2009,04,24,00,30,6.90
2009,04,24,00,31,6.90
2009,04,24,00,32,6.90
2009,04,24,00,33,6.90
2009,04,24,00,34,6.90
2009,04,24,00,35,6.90
2009,04,24,00,36,6.80
2009,04,24,00,37,6.80
2009,04,24,00,38,6.80
2009,04,24,00,39,6.80
2009,04,24,00,40,6.80
2009,04,24,00,41,6.70
2009,04,24,00,42,6.70
2009,04,24,00,43,6.70
2009,04,24,00,44,6.70
2009,04,24,00,45,6.70
2009,04,24,00,46,6.70
2009,04,24,00,47,6.70
2009,04,24,00,48,6.70
2009,04,24,00,49,6.80
2009,04,24,00,50,6.80
2009,04,24,00,51,6.80
2009,04,24,00,52,6.80
2009,04,24,00,53,6.80
2009,04,24,00,54,6.80
2009,04,24,00,55,6.80
2009,04,24,00,56,6.80
2009,04,24,00,57,6.80
2009,04,24,00,58,6.80
2009,04,24,00,59,6.70
2009,04,24,01,00,6.70
2009,04,24,01,01,6.70
2009,04,24,01,02,6.70
2009,04,24,01,03,6.60
2009,04,24,01,04,6.60
2009,04,24,01,05,6.60
2009,04,24,01,06,6.60
2009,04,24,01,07,6.60
2009,04,24,01,08,6.70
2009,04,24,01,09,6.70
2009,04,24,01,10,6.70
2009,04,24,01,11,6.70
2009,04,24,01,12,6.70
2009,04,24,01,13,6.70
2009,04,24,01,14,6.70
2009,04,24,01,15,6.70
2009,04,24,01,16,6.70
2009,04,24,01,17,6.60
2009,04,24,01,18,6.60
2009,04,24,01,19,6.60
2009,04,24,01,20,6.60
2009,04,24,01,21,6.60
2009,04,24,01,22,6.60
2009,04,24,01,23,6.60
2009,04,24,01,24,6.60
2009,04,24,01,25,6.60
2009,04,24,01,26,6.60
2009,04,24,01,27,6.60
2009,04,24,01,28,6.60
2009,04,24,01,29,6.60
2009,04,24,01,30,6.50
2009,04,24,01,31,6.40
2009,04,24,01,32,6.40
2009,04,24,01,33,6.40
2009,04,24,01,34,6.30
2009,04,24,01,35,6.30
2009,04,24,01,36,6.30
2009,04,24,01,37,6.30
2009,04,24,01,38,6.20
2009,04,24,01,39,6.20
2009,04,24,01,40,6.20
2009,04,24,01,41,6.20
2009,04,24,01,42,6.20
2009,04,24,01,43,6.20
2009,04,24,01,44,6.20
2009,04,24,01,45,6.20
2009,04,24,01,46,6.20
2009,04,24,01,47,6.20
2009,04,24,01,48,6.20
2009,04,24,01,49,6.20
2009,04,24,01,50,6.20
2009,04,24,01,51,6.10
2009,04,24,01,52,6.10
2009,04,24,01,53,6.10
2009,04,24,01,54,6.00
2009,04,24,01,55,6.00
2009,04,24,01,56,6.00
2009,04,24,01,57,5.90
2009,04,24,01,58,5.90
2009,04,24,01,59,5.90
2009,04,24,02,00,5.90
2009,04,24,02,01,5.90
2009,04,24,02,02,5.80
2009,04,24,02,03,5.80
2009,04,24,02,04,5.80
2009,04,24,02,05,5.80
2009,04,24,02,06,5.80
2009,04,24,02,07,5.80
2009,04,24,02,08,5.70
2009,04,24,02,09,5.70
2009,04,24,02,10,5.70
2009,04,24,02,11,5.70
2009,04,24,02,12,5.70
2009,04,24,02,13,5.70
2009,04,24,02,14,5.70
2009,04,24,02,15,5.70
2009,04,24,02,16,5.70
2009,04,24,02,17,5.60
2009,04,24,02,18,5.60
2009,04,24,02,19,5.60
2009,04,24,02,20,5.60
2009,04,24,02,21,5.50
2009,04,24,02,22,5.50
2009,04,24,02,23,5.50
2009,04,24,02,24,5.50
2009,04,24,02,25,5.50
2009,04,24,02,26,5.50
2009,04,24,02,27,5.40
2009,04,24,02,28,5.40
2009,04,24,02,29,5.40
2009,04,24,02,30,5.40
2009,04,24,02,31,5.30
2009,04,24,02,32,5.30
2009,04,24,02,33,5.30
2009,04,24,02,34,5.30
2009,04,24,02,35,5.30
2009,04,24,02,36,5.20
2009,04,24,02,37,5.20
2009,04,24,02,38,5.10
2009,04,24,02,39,5.10
2009,04,24,02,40,5.10
2009,04,24,02,41,5.10
2009,04,24,02,42,5.00
2009,04,24,02,43,4.90
2009,04,24,02,44,4.90
2009,04,24,02,45,4.90
2009,04,24,02,46,4.90
2009,04,24,02,47,4.90
2009,04,24,02,48,4.90
2009,04,24,02,49,4.90
2009,04,24,02,50,4.80
2009,04,24,02,51,4.80
2009,04,24,02,52,4.80
2009,04,24,02,53,4.80
2009,04,24,02,54,4.80
2009,04,24,02,55,4.80
2009,04,24,02,56,4.80
2009,04,24,02,57,4.80
2009,04,24,02,58,4.80
2009,04,24,02,59,4.80
2009,04,24,03,00,4.80
2009,04,24,03,01,4.80
2009,04,24,03,02,4.80
2009,04,24,03,03,4.90
2009,04,24,03,04,4.90
2009,04,24,03,05,4.90
2009,04,24,03,06,4.90
2009,04,24,03,07,4.90
2009,04,24,03,08,4.90
2009,04,24,03,09,4.90
2009,04,24,03,10,4.90
2009,04,24,03,11,4.90
2009,04,24,03,12,4.90
2009,04,24,03,13,4.90
2009,04,24,03,14,4.90
2009,04,24,03,15,4.90
2009,04,24,03,16,4.90
2009,04,24,03,17,4.90
2009,04,24,03,18,4.90
2009,04,24,03,19,4.90
2009,04,24,03,20,4.90
2009,04,24,03,21,4.90
2009,04,24,03,22,4.90
2009,04,24,03,23,4.90
2009,04,24,03,24,4.90
2009,04,24,03,25,4.90
2009,04,24,03,26,4.90
2009,04,24,03,27,4.90
2009,04,24,03,28,4.90
2009,04,24,03,29,4.90
2009,04,24,03,30,4.90
2009,04,24,03,31,4.90
2009,04,24,03,32,4.90
2009,04,24,03,33,4.90
2009,04,24,03,34,4.90
2009,04,24,03,35,4.90
2009,04,24,03,36,5.00
2009,04,24,03,37,5.10
2009,04,24,03,38,5.10
2009,04,24,03,39,5.10
2009,04,24,03,40,5.10
2009,04,24,03,41,5.10
2009,04,24,03,42,5.10
2009,04,24,03,43,4.90
2009,04,24,03,44,4.90
2009,04,24,03,45,4.80
2009,04,24,03,46,4.70
2009,04,24,03,47,4.70
2009,04,24,03,48,4.60
2009,04,24,03,49,4.60
2009,04,24,03,50,4.50
2009,04,24,03,51,4.50
2009,04,24,03,52,4.50
2009,04,24,03,53,4.50
2009,04,24,03,54,4.50
2009,04,24,03,55,4.50
2009,04,24,03,56,4.40
2009,04,24,03,57,4.40
2009,04,24,03,58,4.30
2009,04,24,03,59,4.30
2009,04,24,04,00,4.40
2009,04,24,04,01,4.40
2009,04,24,04,02,4.40
2009,04,24,04,03,4.40
2009,04,24,04,04,4.40
2009,04,24,04,05,4.50
2009,04,24,04,06,4.50
2009,04,24,04,07,4.50
2009,04,24,04,08,4.40
2009,04,24,04,09,4.40
2009,04,24,04,10,4.40
2009,04,24,04,11,4.40
2009,04,24,04,12,4.30
2009,04,24,04,13,4.30
2009,04,24,04,14,4.20
2009,04,24,04,15,4.20
2009,04,24,04,16,4.20
2009,04,24,04,17,4.30
2009,04,24,04,18,4.30
2009,04,24,04,19,4.40
2009,04,24,04,20,4.40
2009,04,24,04,21,4.50
2009,04,24,04,22,4.50
2009,04,24,04,23,4.50
2009,04,24,04,24,4.60
2009,04,24,04,25,4.60
2009,04,24,04,26,4.60
2009,04,24,04,27,4.60
2009,04,24,04,28,4.60
2009,04,24,04,29,4.60
2009,04,24,04,30,4.60
2009,04,24,04,31,4.60
2009,04,24,04,32,4.50
2009,04,24,04,33,4.40
2009,04,24,04,34,4.40
2009,04,24,04,35,4.30
2009,04,24,04,36,4.30
2009,04,24,04,37,4.20
2009,04,24,04,38,4.20
2009,04,24,04,39,4.20
2009,04,24,04,40,4.20
2009,04,24,04,41,4.10
2009,04,24,04,42,4.10
2009,04,24,04,43,4.00
2009,04,24,04,44,3.90
2009,04,24,04,45,3.90
2009,04,24,04,46,3.80
2009,04,24,04,47,3.80
2009,04,24,04,48,3.70
2009,04,24,04,49,3.70
2009,04,24,04,50,3.60
2009,04,24,04,51,3.60
2009,04,24,04,52,3.60
2009,04,24,04,53,3.50
2009,04,24,04,54,3.40
2009,04,24,04,55,3.40
2009,04,24,04,56,3.30
2009,04,24,04,57,3.30
2009,04,24,04,58,3.30
2009,04,24,04,59,3.30
2009,04,24,05,00,3.30
2009,04,24,05,01,3.30
2009,04,24,05,02,3.30
2009,04,24,05,03,3.40
2009,04,24,05,04,3.40
2009,04,24,05,05,3.40
2009,04,24,05,06,3.50
2009,04,24,05,07,3.50
2009,04,24,05,08,3.50
2009,04,24,05,09,3.50
2009,04,24,05,10,3.40
2009,04,24,05,11,3.20
2009,04,24,05,12,3.10
2009,04,24,05,13,2.90
2009,04,24,05,14,2.90
2009,04,24,05,15,2.80
2009,04,24,05,16,2.70
2009,04,24,05,17,2.70
2009,04,24,05,18,2.70
2009,04,24,05,19,2.60
2009,04,24,05,20,2.60
2009,04,24,05,21,2.60
2009,04,24,05,22,2.60
2009,04,24,05,23,2.60
2009,04,24,05,24,2.60
2009,04,24,05,25,2.60
2009,04,24,05,26,2.60
2009,04,24,05,27,2.60
2009,04,24,05,28,2.60
2009,04,24,05,29,2.60
2009,04,24,05,30,2.60
2009,04,24,05,31,2.60
2009,04,24,05,32,2.60
2009,04,24,05,33,2.60
2009,04,24,05,34,2.60
2009,04,24,05,35,2.60
2009,04,24,05,36,2.70
2009,04,24,05,37,2.70
2009,04,24,05,38,2.80
2009,04,24,05,39,2.80
2009,04,24,05,40,2.90
2009,04,24,05,41,3.00
2009,04,24,05,42,3.10
2009,04,24,05,43,3.10
2009,04,24,05,44,3.20
2009,04,24,05,45,3.20
2009,04,24,05,46,3.20
2009,04,24,05,47,3.20
2009,04,24,05,48,3.20
2009,04,24,05,49,3.30
2009,04,24,05,50,3.30
2009,04,24,05,51,3.30
2009,04,24,05,52,3.30
2009,04,24,05,53,3.40
2009,04,24,05,54,3.40
2009,04,24,05,55,3.40
2009,04,24,05,56,3.40
2009,04,24,05,57,3.40
2009,04,24,05,58,3.30
2009,04,24,05,59,3.30
2009,04,24,06,00,3.30
2009,04,24,06,01,3.30
2009,04,24,06,02,3.40
2009,04,24,06,03,3.40
2009,04,24,06,04,3.40
2009,04,24,06,05,3.40
2009,04,24,06,06,3.50
2009,04,24,06,07,3.50
2009,04,24,06,08,3.50
2009,04,24,06,09,3.60
2009,04,24,06,10,3.60
2009,04,24,06,11,3.50
2009,04,24,06,12,3.50
2009,04,24,06,13,3.50
2009,04,24,06,14,3.50
2009,04,24,06,15,3.60
2009,04,24,06,16,3.60
2009,04,24,06,17,3.60
2009,04,24,06,18,3.60
2009,04,24,06,19,3.70
2009,04,24,06,20,3.70
2009,04,24,06,21,3.70
2009,04,24,06,22,3.70
2009,04,24,06,23,3.70
2009,04,24,06,24,3.70
2009,04,24,06,25,3.70
2009,04,24,06,26,3.70
2009,04,24,06,27,3.70
2009,04,24,06,28,3.70
2009,04,24,06,29,3.70
2009,04,24,06,30,3.70
2009,04,24,06,31,3.70
2009,04,24,06,32,3.70
2009,04,24,06,33,3.70
2009,04,24,06,34,3.80
2009,04,24,06,35,3.80
2009,04,24,06,36,3.80
2009,04,24,06,37,3.80
2009,04,24,06,38,3.80
2009,04,24,06,39,3.80
2009,04,24,06,40,3.80
2009,04,24,06,41,3.80
2009,04,24,06,42,3.80
2009,04,24,06,43,3.90
2009,04,24,06,44,3.90
2009,04,24,06,45,3.90
2009,04,24,06,46,4.00
2009,04,24,06,47,4.00
2009,04,24,06,48,4.00
2009,04,24,06,49,4.10
2009,04,24,06,50,4.20
2009,04,24,06,51,4.20
2009,04,24,06,52,4.30
2009,04,24,06,53,4.30
2009,04,24,06,54,4.40
2009,04,24,06,55,4.40
2009,04,24,06,56,4.40
2009,04,24,06,57,4.30
2009,04,24,06,58,4.10
2009,04,24,06,59,3.80
2009,04,24,07,00,3.50
2009,04,24,07,01,3.30
2009,04,24,07,02,3.20
2009,04,24,07,03,3.10
2009,04,24,07,04,2.90
2009,04,24,07,05,2.80
2009,04,24,07,06,2.70
2009,04,24,07,07,2.70
2009,04,24,07,08,2.60
2009,04,24,07,09,2.60
2009,04,24,07,10,2.60
2009,04,24,07,11,2.50
2009,04,24,07,12,2.60
2009,04,24,07,13,2.60
2009,04,24,07,14,2.60
2009,04,24,07,15,2.60
2009,04,24,07,16,2.60
2009,04,24,07,17,2.70
2009,04,24,07,18,2.70
2009,04,24,07,19,2.70
2009,04,24,07,20,2.80
2009,04,24,07,21,2.90
2009,04,24,07,22,3.00
2009,04,24,07,23,3.10
2009,04,24,07,24,3.10
2009,04,24,07,25,3.10
2009,04,24,07,26,3.10
2009,04,24,07,27,3.20
2009,04,24,07,28,3.20
2009,04,24,07,29,3.20
2009,04,24,07,30,3.20
2009,04,24,07,31,3.30
2009,04,24,07,32,3.30
2009,04,24,07,33,3.30
2009,04,24,07,34,3.40
2009,04,24,07,35,3.40
2009,04,24,07,36,3.50
2009,04,24,07,37,3.50
2009,04,24,07,38,3.60
2009,04,24,07,39,3.60
2009,04,24,07,40,3.60
2009,04,24,07,41,3.60
2009,04,24,07,42,3.70
2009,04,24,07,43,3.70
2009,04,24,07,44,3.80
2009,04,24,07,45,3.80
2009,04,24,07,46,3.80
2009,04,24,07,47,3.80
2009,04,24,07,48,3.90
2009,04,24,07,49,3.90
2009,04,24,07,50,4.00
2009,04,24,07,51,4.00
2009,04,24,07,52,4.10
2009,04,24,07,53,4.10
2009,04,24,07,54,4.20
2009,04,24,07,55,4.20
2009,04,24,07,56,4.20
2009,04,24,07,57,4.30
2009,04,24,07,58,4.40
2009,04,24,07,59,4.40
2009,04,24,08,00,4.50
2009,04,24,08,01,4.60
2009,04,24,08,02,4.60
2009,04,24,08,03,4.70
2009,04,24,08,04,4.80
2009,04,24,08,05,4.90
2009,04,24,08,06,4.90
2009,04,24,08,07,5.00
2009,04,24,08,08,5.10
2009,04,24,08,09,5.20
2009,04,24,08,10,5.30
2009,04,24,08,11,5.30
2009,04,24,08,12,5.40
2009,04,24,08,13,5.50
2009,04,24,08,14,5.60
2009,04,24,08,15,5.70
2009,04,24,08,16,5.70
2009,04,24,08,17,5.80
2009,04,24,08,18,5.90
2009,04,24,08,19,6.00
2009,04,24,08,20,6.10
2009,04,24,08,21,6.20
2009,04,24,08,22,6.20
2009,04,24,08,23,6.30
2009,04,24,08,24,6.30
2009,04,24,08,25,6.40
2009,04,24,08,26,6.60
2009,04,24,08,27,6.70
2009,04,24,08,28,6.80
2009,04,24,08,29,7.00
2009,04,24,08,30,7.10
2009,04,24,08,31,7.20
2009,04,24,08,32,7.40
2009,04,24,08,33,7.50
2009,04,24,08,34,7.60
2009,04,24,08,35,7.80
2009,04,24,08,36,7.80
2009,04,24,08,37,7.90
2009,04,24,08,38,7.90
2009,04,24,08,39,7.90
2009,04,24,08,40,7.90
2009,04,24,08,41,7.90
2009,04,24,08,42,7.90
2009,04,24,08,43,8.00
2009,04,24,08,44,8.00
2009,04,24,08,45,8.00
2009,04,24,08,46,8.00
2009,04,24,08,47,8.00
2009,04,24,08,48,8.10
2009,04,24,08,49,8.10
2009,04,24,08,50,8.10
2009,04,24,08,51,8.10
2009,04,24,08,52,8.20
2009,04,24,08,53,8.20
2009,04,24,08,54,8.20
2009,04,24,08,55,8.20
2009,04,24,08,56,8.20
2009,04,24,08,57,8.30
2009,04,24,08,58,8.40
2009,04,24,08,59,8.50
2009,04,24,09,00,8.60
2009,04,24,09,01,8.70
2009,04,24,09,02,8.70
2009,04,24,09,03,8.70
2009,04,24,09,04,8.60
2009,04,24,09,05,8.60
2009,04,24,09,06,8.70
2009,04,24,09,07,8.70
2009,04,24,09,08,8.70
2009,04,24,09,09,8.80
2009,04,24,09,10,8.80
2009,04,24,09,11,8.90
2009,04,24,09,12,8.90
2009,04,24,09,13,9.00
2009,04,24,09,14,9.00
2009,04,24,09,15,9.10
2009,04,24,09,16,9.10
2009,04,24,09,17,9.00
2009,04,24,09,18,9.00
2009,04,24,09,19,9.00
2009,04,24,09,20,9.00
2009,04,24,09,21,9.00
2009,04,24,09,22,9.10
2009,04,24,09,23,9.10
2009,04,24,09,24,9.10
2009,04,24,09,25,9.20
2009,04,24,09,26,9.20
2009,04,24,09,27,9.20
2009,04,24,09,28,9.30
2009,04,24,09,29,9.40
2009,04,24,09,30,9.50
2009,04,24,09,31,9.60
2009,04,24,09,32,9.70
2009,04,24,09,33,9.80
2009,04,24,09,34,9.90
2009,04,24,09,35,9.90
2009,04,24,09,36,10.00
2009,04,24,09,37,10.10
2009,04,24,09,38,10.20
2009,04,24,09,39,10.20
2009,04,24,09,40,10.30
2009,04,24,09,41,10.30
2009,04,24,09,42,10.30
2009,04,24,09,43,10.40
2009,04,24,09,44,10.50
2009,04,24,09,45,10.60
2009,04,24,09,46,10.60
2009,04,24,09,47,10.60
2009,04,24,09,48,10.60
2009,04,24,09,49,10.60
2009,04,24,09,50,10.60
2009,04,24,09,51,10.70
2009,04,24,09,52,10.70
2009,04,24,09,53,10.70
2009,04,24,09,54,10.60
2009,04,24,09,55,10.60
2009,04,24,09,56,10.60
2009,04,24,09,57,10.60
2009,04,24,09,58,10.60
2009,04,24,09,59,10.60
2009,04,24,10,00,10.60
2009,04,24,10,01,10.60
2009,04,24,10,02,10.60
2009,04,24,10,03,10.70
2009,04,24,10,04,10.80
2009,04,24,10,05,10.90
2009,04,24,10,06,10.90
2009,04,24,10,07,11.00
2009,04,24,10,08,11.10
2009,04,24,10,09,11.10
2009,04,24,10,10,11.10
2009,04,24,10,11,11.10
2009,04,24,10,12,11.10
2009,04,24,10,13,11.10
2009,04,24,10,14,11.20
2009,04,24,10,15,11.10
2009,04,24,10,16,11.10
2009,04,24,10,17,11.10
2009,04,24,10,18,11.10
2009,04,24,10,19,11.20
2009,04,24,10,20,11.20
2009,04,24,10,21,11.30
2009,04,24,10,22,11.30
2009,04,24,10,23,11.30
2009,04,24,10,24,11.30
2009,04,24,10,25,11.30
2009,04,24,10,26,11.30
2009,04,24,10,27,11.40
2009,04,24,10,28,11.40
2009,04,24,10,29,11.50
2009,04,24,10,30,11.60
2009,04,24,10,31,11.60
2009,04,24,10,32,11.60
2009,04,24,10,33,11.60
2009,04,24,10,34,11.50
2009,04,24,10,35,11.40
2009,04,24,10,36,11.50
2009,04,24,10,37,11.60
2009,04,24,10,38,11.60
2009,04,24,10,39,11.60
2009,04,24,10,40,11.60
2009,04,24,10,41,11.60
2009,04,24,10,42,11.60
2009,04,24,10,43,11.70
2009,04,24,10,44,11.80
2009,04,24,10,45,11.80
2009,04,24,10,46,11.90
2009,04,24,10,47,11.90
2009,04,24,10,48,11.80
2009,04,24,10,49,11.80
2009,04,24,10,50,11.80
2009,04,24,10,51,11.70
2009,04,24,10,52,11.70
2009,04,24,10,53,11.70
2009,04,24,10,54,11.70
2009,04,24,10,55,11.70
2009,04,24,10,56,11.80
2009,04,24,10,57,11.80
2009,04,24,10,58,11.80
2009,04,24,10,59,11.70
2009,04,24,11,00,11.70
2009,04,24,11,01,11.60
2009,04,24,11,02,11.60
2009,04,24,11,03,11.60
2009,04,24,11,04,11.60
2009,04,24,11,05,11.60
2009,04,24,11,06,11.60
2009,04,24,11,07,11.60
2009,04,24,11,08,11.60
2009,04,24,11,09,11.60
2009,04,24,11,10,11.60
2009,04,24,11,11,11.60
2009,04,24,11,12,11.50
2009,04,24,11,13,11.40
2009,04,24,11,14,11.40
2009,04,24,11,15,11.40
2009,04,24,11,16,11.40
2009,04,24,11,17,11.50
2009,04,24,11,18,11.60
2009,04,24,11,19,11.60
2009,04,24,11,20,11.50
2009,04,24,11,21,11.40
2009,04,24,11,22,11.40
2009,04,24,11,23,11.50
2009,04,24,11,24,11.50
2009,04,24,11,25,11.60
2009,04,24,11,26,11.50
2009,04,24,11,27,11.40
2009,04,24,11,28,11.40
2009,04,24,11,29,11.40
2009,04,24,11,30,11.40
2009,04,24,11,31,11.40
2009,04,24,11,32,11.40
2009,04,24,11,33,11.40
2009,04,24,11,34,11.40
2009,04,24,11,35,11.40
2009,04,24,11,36,11.40
2009,04,24,11,37,11.50
2009,04,24,11,38,11.60
2009,04,24,11,39,11.70
2009,04,24,11,40,11.80
2009,04,24,11,41,11.80
2009,04,24,11,42,11.80
2009,04,24,11,43,11.80
2009,04,24,11,44,11.80
2009,04,24,11,45,11.80
2009,04,24,11,46,11.80
2009,04,24,11,47,11.80
2009,04,24,11,48,11.90
2009,04,24,11,49,11.90
2009,04,24,11,50,11.90
2009,04,24,11,51,12.00
2009,04,24,11,52,12.10
2009,04,24,11,53,12.20
2009,04,24,11,54,12.30
2009,04,24,11,55,12.40
2009,04,24,11,56,12.20
2009,04,24,11,57,12.10
2009,04,24,11,58,11.90
2009,04,24,11,59,11.70
2009,04,24,12,00,11.50
2009,04,24,12,01,11.40
2009,04,24,12,02,11.40
2009,04,24,12,03,11.30
2009,04,24,12,04,11.40
2009,04,24,12,05,11.40
2009,04,24,12,06,11.40
2009,04,24,12,07,11.40
2009,04,24,12,08,11.40
2009,04,24,12,09,11.40
2009,04,24,12,10,11.40
2009,04,24,12,11,11.50
2009,04,24,12,12,11.60
2009,04,24,12,13,11.80
2009,04,24,12,14,11.70
2009,04,24,12,15,11.60
2009,04,24,12,16,11.70
2009,04,24,12,17,11.80
2009,04,24,12,18,11.90
2009,04,24,12,19,12.00
2009,04,24,12,20,12.00
2009,04,24,12,21,12.10
2009,04,24,12,22,12.10
2009,04,24,12,23,12.20
2009,04,24,12,24,12.20
2009,04,24,12,25,12.10
2009,04,24,12,26,12.10
2009,04,24,12,27,12.10
2009,04,24,12,28,12.20
2009,04,24,12,29,12.30
2009,04,24,12,30,12.30
2009,04,24,12,31,12.20
2009,04,24,12,32,12.20
2009,04,24,12,33,12.30
2009,04,24,12,34,12.30
2009,04,24,12,35,12.20
2009,04,24,12,36,12.10
2009,04,24,12,37,12.10
2009,04,24,12,38,12.20
2009,04,24,12,39,12.30
2009,04,24,12,40,12.30
2009,04,24,12,41,12.30
2009,04,24,12,42,12.20
2009,04,24,12,43,12.20
2009,04,24,12,44,12.30
2009,04,24,12,45,12.30
2009,04,24,12,46,12.20
2009,04,24,12,47,12.10
2009,04,24,12,48,12.00
2009,04,24,12,49,12.10
2009,04,24,12,50,12.00
2009,04,24,12,51,11.80
2009,04,24,12,52,11.70
2009,04,24,12,53,11.70
2009,04,24,12,54,11.80
2009,04,24,12,55,11.80
2009,04,24,12,56,11.80
2009,04,24,12,57,12.00
2009,04,24,12,58,12.10
2009,04,24,12,59,12.20
2009,04,24,13,00,12.30
2009,04,24,13,01,12.50
2009,04,24,13,02,12.60
2009,04,24,13,03,12.70
2009,04,24,13,04,12.70
2009,04,24,13,05,12.60
2009,04,24,13,06,12.60
2009,04,24,13,07,12.60
2009,04,24,13,08,12.60
2009,04,24,13,09,12.60
2009,04,24,13,10,12.50
2009,04,24,13,11,12.50
2009,04,24,13,12,12.50
2009,04,24,13,13,12.50
2009,04,24,13,14,12.60
2009,04,24,13,15,12.50
2009,04,24,13,16,12.40
2009,04,24,13,17,12.30
2009,04,24,13,18,12.30
2009,04,24,13,19,12.20
2009,04,24,13,20,12.10
2009,04,24,13,21,12.10
2009,04,24,13,22,12.20
2009,04,24,13,23,12.20
2009,04,24,13,24,12.20
2009,04,24,13,25,12.20
2009,04,24,13,26,12.30
2009,04,24,13,27,12.40
2009,04,24,13,28,12.50
2009,04,24,13,29,12.60
2009,04,24,13,30,12.60
2009,04,24,13,31,12.60
2009,04,24,13,32,12.70
2009,04,24,13,33,12.80
2009,04,24,13,34,12.70
2009,04,24,13,35,12.70
2009,04,24,13,36,12.70
2009,04,24,13,37,12.60
2009,04,24,13,38,12.60
2009,04,24,13,39,12.60
2009,04,24,13,40,12.70
2009,04,24,13,41,12.70
2009,04,24,13,42,12.70
2009,04,24,13,43,12.70
2009,04,24,13,44,12.60
2009,04,24,13,45,12.60
2009,04,24,13,46,12.70
2009,04,24,13,47,12.70
2009,04,24,13,48,12.60
2009,04,24,13,49,12.70
2009,04,24,13,50,12.70
2009,04,24,13,51,12.60
2009,04,24,13,52,12.50
2009,04,24,13,53,12.50
2009,04,24,13,54,12.50
2009,04,24,13,55,12.40
2009,04,24,13,56,12.50
2009,04,24,13,57,12.60
2009,04,24,13,58,12.70
2009,04,24,13,59,12.70
2009,04,24,14,00,12.70
2009,04,24,14,01,12.80
2009,04,24,14,02,12.90
2009,04,24,14,03,13.00
2009,04,24,14,04,13.00
2009,04,24,14,05,13.10
2009,04,24,14,06,13.10
2009,04,24,14,07,13.10
2009,04,24,14,08,13.10
2009,04,24,14,09,13.10
2009,04,24,14,10,12.80
2009,04,24,14,11,12.70
2009,04,24,14,12,12.60
2009,04,24,14,13,12.60
2009,04,24,14,14,12.50
2009,04,24,14,15,12.50
2009,04,24,14,16,12.70
2009,04,24,14,17,12.60
2009,04,24,14,18,12.60
2009,04,24,14,19,12.50
2009,04,24,14,20,12.40
2009,04,24,14,21,12.30
2009,04,24,14,22,12.20
2009,04,24,14,23,12.10
2009,04,24,14,24,12.10
2009,04,24,14,25,12.00
2009,04,24,14,26,11.90
2009,04,24,14,27,11.80
2009,04,24,14,28,11.90
2009,04,24,14,29,11.90
2009,04,24,14,30,11.90
2009,04,24,14,31,12.00
2009,04,24,14,32,12.20
2009,04,24,14,33,12.20
2009,04,24,14,34,12.20
2009,04,24,14,35,12.20
2009,04,24,14,36,12.20
2009,04,24,14,37,12.20
2009,04,24,14,38,12.10
2009,04,24,14,39,12.10
2009,04,24,14,40,12.10
2009,04,24,14,41,12.00
2009,04,24,14,42,12.00
2009,04,24,14,43,11.90
2009,04,24,14,44,12.00
2009,04,24,14,45,12.00
2009,04,24,14,46,12.10
2009,04,24,14,47,12.20
2009,04,24,14,48,12.30
2009,04,24,14,49,12.30
2009,04,24,14,50,12.40
2009,04,24,14,51,12.30
2009,04,24,14,52,12.30
2009,04,24,14,53,12.30
2009,04,24,14,54,12.20
2009,04,24,14,55,12.10
2009,04,24,14,56,12.10
2009,04,24,14,57,12.20
2009,04,24,14,58,12.30
2009,04,24,14,59,12.30
2009,04,24,15,00,12.30
2009,04,24,15,01,12.40
2009,04,24,15,02,12.40
2009,04,24,15,03,12.30
2009,04,24,15,04,12.20
2009,04,24,15,05,12.10
2009,04,24,15,06,12.20
2009,04,24,15,07,12.30
2009,04,24,15,08,12.40
2009,04,24,15,09,12.40
2009,04,24,15,10,12.40
2009,04,24,15,11,12.50
2009,04,24,15,12,12.40
2009,04,24,15,13,12.20
2009,04,24,15,14,12.10
2009,04,24,15,15,11.90
2009,04,24,15,16,11.80
2009,04,24,15,17,11.80
2009,04,24,15,18,11.80
2009,04,24,15,19,11.80
2009,04,24,15,20,11.80
2009,04,24,15,21,11.90
2009,04,24,15,22,11.90
2009,04,24,15,23,11.90
2009,04,24,15,24,11.90
2009,04,24,15,25,12.00
2009,04,24,15,26,12.00
2009,04,24,15,27,12.00
2009,04,24,15,28,12.10
2009,04,24,15,29,12.20
2009,04,24,15,30,12.10
2009,04,24,15,31,12.00
2009,04,24,15,32,11.90
2009,04,24,15,33,11.80
2009,04,24,15,34,11.80
2009,04,24,15,35,11.80
2009,04,24,15,36,11.70
2009,04,24,15,37,11.60
2009,04,24,15,38,11.60
2009,04,24,15,39,11.70
2009,04,24,15,40,11.80
2009,04,24,15,41,11.70
2009,04,24,15,42,11.60
2009,04,24,15,43,11.70
2009,04,24,15,44,11.70
2009,04,24,15,45,11.80
2009,04,24,15,46,11.90
2009,04,24,15,47,12.00
2009,04,24,15,48,12.00
2009,04,24,15,49,12.10
2009,04,24,15,50,12.10
2009,04,24,15,51,12.10
2009,04,24,15,52,12.00
2009,04,24,15,53,11.90
2009,04,24,15,54,11.90
2009,04,24,15,55,12.00
2009,04,24,15,56,12.00
2009,04,24,15,57,12.10
2009,04,24,15,58,12.20
2009,04,24,15,59,12.40
2009,04,24,16,00,12.60
2009,04,24,16,01,12.80
2009,04,24,16,02,12.90
2009,04,24,16,03,13.10
2009,04,24,16,04,13.20
2009,04,24,16,05,13.40
2009,04,24,16,06,13.50
2009,04,24,16,07,13.60
2009,04,24,16,08,13.60
2009,04,24,16,09,13.70
2009,04,24,16,10,13.70
2009,04,24,16,11,13.80
2009,04,24,16,12,13.80
2009,04,24,16,13,13.90
2009,04,24,16,14,13.90
2009,04,24,16,15,14.00
2009,04,24,16,16,14.20
2009,04,24,16,17,14.30
2009,04,24,16,18,14.50
2009,04,24,16,19,14.60
2009,04,24,16,20,14.80
2009,04,24,16,21,15.00
2009,04,24,16,22,15.20
2009,04,24,16,23,15.50
2009,04,24,16,24,15.70
2009,04,24,16,25,15.80
2009,04,24,16,26,15.80
2009,04,24,16,27,15.80
2009,04,24,16,28,15.80
2009,04,24,16,29,15.80
2009,04,24,16,30,15.70
2009,04,24,16,31,15.70
2009,04,24,16,32,15.70
2009,04,24,16,33,15.60
2009,04,24,16,34,15.60
2009,04,24,16,35,15.60
2009,04,24,16,36,15.70
2009,04,24,16,37,15.70
2009,04,24,16,38,15.70
2009,04,24,16,39,15.80
2009,04,24,16,40,15.80
2009,04,24,16,41,15.80
2009,04,24,16,42,15.90
2009,04,24,16,43,15.90
2009,04,24,16,44,15.90
2009,04,24,16,45,15.80
2009,04,24,16,46,15.80
2009,04,24,16,47,15.80
2009,04,24,16,48,15.90
2009,04,24,16,49,15.80
2009,04,24,16,50,15.80
2009,04,24,16,51,15.80
2009,04,24,16,52,15.80
2009,04,24,16,53,15.80
2009,04,24,16,54,15.80
2009,04,24,16,55,15.70
2009,04,24,16,56,15.80
2009,04,24,16,57,15.80
2009,04,24,16,58,15.90
2009,04,24,16,59,16.00
2009,04,24,17,00,16.10
2009,04,24,17,01,16.00
2009,04,24,17,02,15.90
2009,04,24,17,03,15.90
2009,04,24,17,04,15.90
2009,04,24,17,05,15.90
2009,04,24,17,06,15.90
2009,04,24,17,07,16.00
2009,04,24,17,08,16.00
2009,04,24,17,09,16.00
2009,04,24,17,10,16.10
2009,04,24,17,11,16.10
2009,04,24,17,12,16.10
2009,04,24,17,13,16.00
2009,04,24,17,14,15.90
2009,04,24,17,15,15.90
2009,04,24,17,16,15.90
2009,04,24,17,17,16.00
2009,04,24,17,18,16.00
2009,04,24,17,19,15.80
2009,04,24,17,20,15.80
2009,04,24,17,21,15.80
2009,04,24,17,22,15.80
2009,04,24,17,23,15.80
2009,04,24,17,24,15.80
2009,04,24,17,25,15.80
2009,04,24,17,26,15.80
2009,04,24,17,27,15.80
2009,04,24,17,28,15.70
2009,04,24,17,29,15.60
2009,04,24,17,30,15.50
2009,04,24,17,31,15.50
2009,04,24,17,32,15.50
2009,04,24,17,33,15.50
2009,04,24,17,34,15.50
2009,04,24,17,35,15.60
2009,04,24,17,36,15.60
2009,04,24,17,37,15.50
2009,04,24,17,38,15.40
2009,04,24,17,39,15.50
2009,04,24,17,40,15.50
2009,04,24,17,41,15.50
2009,04,24,17,42,15.30
2009,04,24,17,43,15.20
2009,04,24,17,44,15.20